Temp
-12 -11 -11 -11 -11 -10 -10 -10 -10 -10 -10 -10 -10 -9 -9 -9 -9 -9 -9 -9 -8 -8 -8 -8 -8 -8 -9 -9 -9 -9 -9 -9 -9 -9 -9 -9 -9 -9 -9 -9 -9 -9 -9 -9 -9
-12 -11 -11 -11 -11 -11 -10 -10 -10 -10 -10 -10 -10 -9 -9 -9 -9 -9 -9 -9 -9 -9 -8 -8 -8 -8 -9 -9 -9 -9 -9 -9 -9 -9 -9 -9 -9 -9 -9 -9 -9 -9 -9 -9 -9
-12 -12 -12 -11 -11 -11 -10 -10 -10 -10 -10 -10 -10 -10 -9 -9 -9 -9 -9 -9 -9 -9 -9 -8 -8 -8 -8 -8 -9 -9 -9 -9 -9 -9 -9 -9 -9 -9 -9 -9 -9 -9 -9 -9 -9
-12 -12 -12 -11 -11 -11 -10 -10 -10 -10 -10 -10 -10 -10 -9 -9 -9 -9 -9 -9 -9 -9 -9 -9 -9 -9 -8 -8 -9 -9 -9 -9 -9 -9 -9 -9 -9 -9 -9 -9 -9 -9 -9 -9 -9
-12 -12 -12 -11 -11 -11 -10 -10 -10 -10 -10 -10 -10 -10 -9 -9 -9 -9 -9 -9 -9 -9 -9 -9 -9 -9 -9 -9 -9 -9 -9 -9 -9 -9 -9 -9 -9 -9 -9 -9 -9 -9 -9 -9 -9
-12 -12 -12 -12 -11 -11 -11 -11 -10 -10 -10 -10 -10 -10 -10 -9 -9 -9 -9 -9 -9 -9 -9 -9 -9 -9 -9 -9 -9 -9 -9 -9 -10 -9 -9 -9 -9 -9 -9 -9 -9 -9 -9 -9 -9
-12 -12 -12 -12 -12 -11 -11 -11 -10 -10 -10 -10 -10 -10 -10 -10 -10 -9 -9 -9 -9 -9 -9 -9 -9 -10 -10 -10 -10 -10 -10 -10 -10 -9 -9 -9 -10 -10 -9 -10 -10 -9 -9 -9 -9
-12 -12 -12 -12 -12 -11 -11 -11 -11 -11 -11 -11 -10 -11 -10 -10 -10 -10 -10 -10 -10 -10 -10 -10 -10 -10 -10 -10 -10 -10 -10 -10 -10 -10 -10 -9 -10 -10 -10 -9 -10 -10 -10 -9 -9
-12 -12 -12 -12 -12 -12 -11 -11 -11 -11 -11 -11 -11 -11 -11 -11 -11 -10 -10 -10 -10 -10 -10 -10 -10 -10 -11 -11 -10 -10 -10 -10 -10 -10 -10 -10 -10 -10 -10 -10 -9 -10 -10 -10 -10
-13 -13 -12 -12 -12 -12 -12 -11 -11 -11 -11 -11 -11 -11 -11 -11 -11 -11 -11 -11 -11 -11 -11 -11 -11 -11 -11 -11 -10 -10 -10 -10 -10 -10 -10 -10 -10 -10 -10 -10 -10 -10 -10 -10 -10
-13 -13 -13 -13 -12 -12 -12 -12 -12 -11 -11 -11 -11 -11 -11 -11 -11 -11 -11 -11 -11 -11 -11 -11 -11 -11 -11 -11 -11 -11 -11 -11 -11 -10 -10 -10 -9 -10 -11 -10 -10 -10 -10 -10 -10
-13 -13 -13 -13 -13 -12 -12 -12 -12 -11 -11 -11 -11 -11 -11 -11 -11 -11 -11 -11 -11 -11 -11 -11 -11 -11 -11 -11 -11 -11 -11 -11 -11 -11 -10 -10 -9 -10 -11 -10 -11 -11 -11 -10 -11
-13 -13 -13 -13 -13 -13 -12 -12 -12 -12 -11 -12 -12 -11 -11 -11 -11 -11 -11 -11 -11 -11 -11 -11 -11 -11 -11 -11 -11 -11 -11 -11 -11 -10 -10 -10 -9 -9 -10 -11 -11 -11 -11 -11 -11
-13 -13 -13 -13 -13 -13 -12 -12 -12 -12 -12 -11 -12 -12 -12 -12 -11 -11 -11 -11 -11 -11 -11 -11 -11 -11 -11 -11 -12 -11 -11 -12 -12 -11 -11 -10 -8 -9 -10 -10 -11 -11 -11 -11 -11
-14 -14 -13 -13 -13 -13 -13 -13 -13 -12 -12 -12 -11 -12 -12 -12 -12 -12 -12 -12 -12 -12 -12 -11 -11 -11 -11 -12 -12 -11 -11 -12 -12 -12 -11 -11 -11 -9 -10 -10 -11 -11 -11 -11 -11
-14 -14 -14 -14 -14 -14 -13 -13 -13 -13 -12 -12 -12 -12 -12 -12 -12 -12 -12 -12 -12 -12 -12 -12 -12 -12 -12 -12 -12 -12 -12 -12 -12 -12 -11 -11 -12 -9 -10 -10 -10 -11 -11 -12 -12
-14 -14 -14 -14 -14 -14 -14 -14 -14 -13 -13 -13 -13 -13 -13 -13 -13 -13 -12 -12 -12 -12 -12 -12 -12 -12 -12 -12 -12 -12 -13 -13 -12 -12 -11 -12 -12 -10 -10 -11 -11 -11 -12 -12 -13
-14 -14 -14 -14 -14 -14 -14 -14 -14 -13 -13 -13 -13 -13 -13 -13 -13 -13 -13 -12 -13 -13 -13 -13 -12 -12 -12 -13 -13 -12 -13 -13 -13 -13 -13 -12 -10 -10 -11 -11 -11 -12 -12 -13 -13
-14 -14 -14 -14 -14 -14 -14 -14 -14 -14 -14 -14 -14 -13 -13 -13 -13 -13 -13 -13 -13 -13 -14 -14 -12 -12 -12 -12 -13 -12 -13 -14 -14 -13 -14 -12 -11 -12 -11 -12 -12 -12 -13 -13 -13
-14 -14 -14 -14 -14 -14 -14 -14 -14 -14 -14 -14 -14 -14 -14 -14 -13 -13 -13 -13 -13 -13 -14 -14 -14 -13 -13 -13 -13 -13 -14 -14 -14 -14 -14 -12 -13 -12 -13 -13 -13 -13 -14 -14 -15
-15 -15 -15 -15 -15 -15 -14 -14 -14 -14 -14 -14 -14 -14 -14 -14 -14 -14 -13 -13 -13 -14 -14 -14 -14 -12 -13 -13 -14 -14 -14 -14 -15 -15 -15 -15 -13 -13 -13 -14 -14 -15 -15 -16 -16
-15 -15 -15 -15 -15 -15 -15 -15 -15 -15 -15 -15 -15 -15 -15 -15 -14 -14 -14 -15 -15 -14 -14 -15 -15 -13 -13 -14 -14 -14 -14 -15 -15 -15 -16 -16 -14 -14 -15 -16 -16 -16 -16 -16 -16
-16 -15 -15 -15 -15 -15 -15 -15 -15 -15 -15 -16 -16 -15 -15 -15 -15 -15 -15 -16 -15 -15 -15 -15 -15 -15 -13 -14 -15 -16 -16 -16 -16 -17 -16 -17 -14 -16 -17 -16 -16 -16 -16 -16 -17
-16 -16 -16 -16 -16 -16 -16 -16 -16 -16 -15 -16 -16 -16 -16 -16 -16 -15 -15 -16 -16 -16 -16 -17 -17 -17 -16 -16 -17 -17 -17 -17 -17 -18 -17 -17 -17 -18 -17 -17 -17 -17 -17 -18 -18
-18 -18 -18 -18 -18 -18 -17 -17 -17 -17 -16 -17 -16 -16 -16 -16 -16 -17 -16 -16 -16 -16 -17 -19 -19 -18 -17 -17 -17 -18 -18 -18 -18 -18 -18 -18 -19 -18 -18 -18 -17 -18 -19 -18 -18
-19 -19 -19 -19 -19 -19 -19 -19 -18 -18 -18 -18 -18 -17 -18 -17 -17 -17 -18 -18 -17 -18 -19 -20 -19 -19 -18 -18 -19 -19 -19 -19 -19 -19 -19 -19 -19 -19 -19 -19 -19 -19 -19 -19 -19
-19 -19 -19 -19 -19 -19 -19 -19 -19 -19 -19 -19 -19 -20 -21 -20 -20 -20 -20 -19 -19 -19 -19 -20 -20 -21 -18 -19 -21 -20 -19 -19 -20 -20 -20 -20 -20 -20 -20 -20 -20 -19 -19 -19 -19
Height
5767 5772 5775 5776 5777 5779 5782 5783 5786 5788 5790 5791 5792 5794 5795 5796 5797 5799 5799 5800 5800 5801 5802 5803 5803 5803 5804 5804 5804 5804 5804 5803 5802 5802 5802 5801 5801 5801 5800 5800 5799 5798 5798 5798 5797
5770 5773 5775 5776 5777 5779 5781 5783 5785 5788 5789 5790 5792 5793 5794 5795 5797 5798 5799 5799 5800 5801 5802 5802 5803 5803 5803 5803 5802 5801 5801 5800 5799 5799 5799 5798 5798 5798 5798 5797 5796 5795 5795 5795 5794
5771 5773 5774 5775 5777 5778 5780 5782 5785 5787 5789 5790 5791 5792 5793 5794 5796 5796 5797 5798 5799 5800 5801 5801 5801 5801 5801 5800 5800 5799 5798 5797 5796 5796 5796 5795 5795 5794 5794 5793 5793 5792 5792 5791 5791
5771 5772 5773 5775 5776 5777 5779 5782 5784 5786 5788 5789 5790 5790 5791 5793 5795 5794 5796 5797 5798 5798 5799 5799 5799 5799 5798 5798 5797 5796 5795 5794 5794 5793 5792 5792 5791 5791 5790 5789 5789 5788 5788 5788 5787
5771 5772 5773 5774 5775 5776 5778 5780 5782 5784 5786 5788 5788 5788 5789 5791 5792 5793 5794 5795 5795 5796 5796 5796 5796 5795 5795 5794 5794 5792 5792 5791 5791 5790 5789 5788 5787 5787 5785 5786 5785 5785 5784 5784 5783
5771 5772 5773 5773 5774 5776 5777 5779 5781 5783 5784 5785 5785 5786 5787 5788 5789 5791 5792 5792 5792 5792 5792 5792 5792 5791 5791 5790 5790 5789 5788 5787 5786 5785 5785 5784 5783 5782 5780 5781 5780 5780 5779 5779 5779
5771 5772 5772 5773 5774 5775 5776 5777 5779 5781 5782 5783 5783 5783 5784 5786 5786 5787 5788 5788 5788 5788 5788 5787 5787 5787 5786 5786 5785 5784 5784 5783 5782 5780 5780 5778 5779 5777 5776 5775 5775 5775 5774 5774 5774
5770 5771 5771 5772 5772 5773 5774 5775 5776 5778 5779 5779 5779 5780 5780 5781 5782 5782 5783 5783 5783 5783 5783 5782 5782 5782 5781 5781 5780 5779 5779 5777 5777 5774 5774 5773 5776 5770 5770 5769 5769 5769 5769 5769 5768
5769 5769 5769 5770 5770 5771 5772 5772 5773 5774 5776 5776 5777 5777 5778 5777 5778 5778 5778 5778 5778 5778 5778 5777 5777 5777 5777 5775 5774 5774 5773 5771 5769 5769 5768 5767 5770 5764 5763 5762 5763 5762 5763 5762 5762
5766 5767 5767 5767 5767 5768 5768 5769 5769 5771 5772 5773 5773 5774 5774 5774 5773 5773 5773 5773 5773 5773 5773 5772 5771 5771 5772 5768 5768 5766 5765 5765 5764 5761 5759 5760 5763 5759 5756 5755 5756 5756 5756 5756 5755
5764 5764 5764 5764 5764 5765 5765 5765 5767 5768 5767 5768 5769 5769 5769 5769 5768 5768 5768 5768 5768 5768 5767 5766 5764 5767 5762 5762 5762 5760 5758 5758 5758 5750 5752 5752 5752 5755 5750 5747 5749 5749 5748 5748 5748
5761 5761 5760 5760 5760 5760 5761 5761 5761 5761 5763 5762 5763 5763 5763 5763 5763 5763 5762 5762 5761 5761 5759 5759 5758 5759 5756 5755 5753 5753 5751 5751 5748 5744 5743 5743 5743 5748 5746 5742 5741 5741 5741 5740 5739
5757 5757 5757 5756 5756 5756 5756 5756 5755 5754 5755 5758 5756 5756 5756 5757 5756 5756 5755 5754 5754 5753 5751 5749 5751 5752 5748 5747 5745 5744 5742 5743 5740 5736 5736 5732 5734 5738 5739 5738 5735 5734 5732 5732 5731
5752 5751 5751 5752 5753 5751 5750 5750 5749 5748 5747 5751 5750 5750 5749 5748 5748 5748 5746 5747 5745 5745 5742 5741 5744 5743 5740 5739 5736 5735 5734 5734 5731 5728 5726 5722 5720 5730 5729 5731 5729 5727 5725 5724 5722
5747 5746 5746 5745 5745 5745 5744 5743 5742 5741 5739 5742 5743 5742 5742 5741 5741 5740 5739 5737 5737 5736 5735 5735 5734 5733 5732 5732 5728 5726 5727 5724 5722 5718 5715 5715 5714 5718 5718 5718 5718 5718 5716 5715 5713
5740 5740 5739 5739 5738 5738 5737 5735 5735 5734 5731 5733 5734 5734 5734 5733 5732 5731 5730 5729 5728 5726 5725 5726 5724 5723 5723 5722 5720 5718 5716 5713 5710 5708 5704 5710 5706 5704 5709 5708 5705 5703 5702 5701 5700
5733 5732 5732 5731 5731 5730 5729 5728 5727 5724 5725 5724 5724 5724 5724 5723 5722 5721 5720 5719 5718 5715 5714 5714 5713 5712 5712 5711 5710 5708 5705 5701 5696 5695 5696 5696 5692 5693 5697 5698 5695 5693 5688 5687 5687
5723 5723 5722 5722 5721 5721 5720 5719 5715 5716 5715 5714 5713 5713 5713 5712 5710 5709 5708 5708 5709 5704 5702 5700 5701 5701 5702 5701 5696 5696 5693 5690 5684 5685 5684 5678 5679 5684 5684 5684 5685 5681 5678 5673 5673
5713 5712 5712 5711 5710 5710 5709 5707 5706 5704 5704 5702 5700 5699 5700 5699 5698 5696 5696 5696 5695 5692 5689 5685 5686 5686 5686 5686 5684 5681 5679 5679 5671 5671 5666 5671 5672 5671 5671 5669 5667 5663 5664 5664 5662
5704 5702 5701 5700 5699 5698 5696 5696 5693 5692 5689 5687 5687 5687 5686 5684 5684 5683 5683 5682 5680 5677 5673 5674 5668 5673 5669 5669 5669 5666 5666 5663 5658 5653 5650 5655 5656 5661 5659 5656 5648 5645 5647 5646 5644
5692 5691 5690 5688 5687 5685 5683 5680 5678 5678 5675 5673 5672 5671 5670 5668 5667 5667 5669 5665 5662 5659 5658 5655 5651 5664 5654 5656 5654 5650 5648 5646 5641 5641 5635 5635 5641 5654 5647 5640 5633 5631 5629 5627 5626
5683 5681 5679 5676 5676 5672 5670 5667 5666 5662 5660 5658 5656 5654 5653 5652 5649 5650 5651 5648 5643 5642 5640 5638 5633 5636 5639 5641 5635 5632 5631 5629 5624 5627 5620 5616 5619 5641 5637 5621 5619 5617 5613 5609 5607
5673 5671 5668 5664 5662 5658 5655 5652 5648 5647 5645 5643 5639 5637 5636 5635 5632 5633 5632 5626 5627 5627 5619 5620 5617 5614 5623 5626 5619 5616 5618 5609 5606 5604 5600 5599 5602 5622 5611 5598 5596 5594 5593 5595 5594
5663 5659 5655 5652 5649 5645 5641 5638 5633 5628 5626 5623 5621 5618 5615 5616 5614 5611 5611 5610 5609 5607 5606 5603 5600 5599 5601 5608 5606 5596 5596 5594 5591 5583 5586 5584 5585 5589 5585 5583 5580 5577 5577 5576 5575
5653 5649 5644 5640 5635 5630 5625 5621 5617 5612 5611 5604 5602 5596 5596 5595 5592 5592 5588 5590 5591 5590 5587 5585 5579 5580 5581 5585 5585 5581 5582 5578 5574 5572 5565 5567 5561 5561 5562 5565 5564 5564 5558 5555 5555
5644 5638 5633 5629 5623 5618 5612 5606 5600 5595 5590 5586 5580 5577 5574 5572 5570 5572 5568 5568 5569 5570 5565 5561 5559 5557 5561 5569 5564 5562 5553 5554 5554 5553 5550 5551 5544 5543 5541 5541 5541 5539 5537 5535 5533
5634 5628 5622 5615 5608 5602 5595 5588 5581 5573 5571 5562 5557 5555 5553 5550 5548 5549 5547 5548 5546 5543 5543 5541 5540 5538 5539 5553 5545 5543 5536 5534 5532 5533 5532 5531 5527 5522 5520 5518 5517 5517 5515 5512 5511
Wind_Speed
21 21 20 18 17 17 18 18 17 17 19 19 18 17 16 15 15 14 14 13 12 11 9 8 7 5 4 4 4 5 6 7 9 11 12 13 12 13 13 12 12 13 12 12 14
18 17 16 15 15 17 18 18 18 20 20 20 18 17 16 16 15 15 14 12 12 11 9 8 7 7 6 4 4 4 5 6 9 11 13 14 15 15 15 14 14 14 13 13 12
13 12 12 13 15 17 17 18 19 21 21 20 19 17 16 16 16 15 14 13 12 11 11 10 10 9 7 6 6 6 6 8 9 11 13 15 16 17 17 17 16 16 15 14 14
9 9 10 12 14 15 17 18 21 21 22 22 20 18 17 16 16 15 14 14 14 13 13 12 12 10 9 9 8 8 9 10 11 12 13 14 15 16 18 18 18 18 17 15 15
7 7 8 10 13 15 16 18 21 21 22 22 21 19 18 17 17 17 17 16 15 15 15 14 13 13 12 13 12 11 12 13 14 14 15 16 17 16 20 17 19 19 19 17 17
6 7 7 10 13 15 16 18 20 21 23 23 22 21 20 19 18 20 20 19 18 18 18 17 17 16 15 15 15 15 16 16 16 17 17 18 18 18 24 19 21 21 21 20 19
8 8 8 10 13 15 17 19 20 22 23 23 23 23 22 20 20 22 22 22 21 21 21 20 19 18 18 18 18 19 18 18 19 20 18 20 17 20 22 22 23 23 23 23 22
10 10 11 11 13 15 18 19 21 22 23 23 23 23 23 23 23 23 24 24 24 24 23 22 21 21 20 21 21 21 21 22 20 23 22 22 15 25 25 25 25 24 26 25 25
10 12 13 14 15 16 18 20 21 23 24 24 24 25 23 24 24 25 25 25 25 25 25 24 24 23 22 24 26 24 25 26 26 26 27 26 18 26 29 28 27 26 26 26 26
10 12 13 14 16 17 18 20 22 24 25 26 25 27 25 23 26 26 26 26 26 27 28 27 28 26 24 29 28 29 29 27 27 29 31 29 22 26 29 30 27 27 27 26 27
11 11 13 15 16 18 20 21 23 25 26 27 27 27 25 25 26 27 27 28 29 29 30 30 32 25 32 32 31 31 32 30 27 36 33 31 28 21 28 32 28 28 28 28 29
15 14 15 16 17 19 21 23 25 27 26 29 28 28 28 28 28 28 30 31 32 32 34 34 33 30 34 33 33 33 33 30 32 37 37 35 33 23 25 30 31 30 29 30 32
19 19 19 19 20 21 22 24 26 29 30 27 30 30 30 31 31 30 33 34 33 35 35 38 35 31 35 35 35 34 35 33 37 39 38 40 36 29 26 28 31 32 32 32 34
22 22 22 22 23 24 25 26 28 30 33 30 30 31 32 33 34 33 35 35 36 36 37 39 33 32 35 35 37 37 38 37 40 41 41 44 44 33 33 28 29 33 34 35 35
25 26 25 25 26 27 28 29 30 32 36 33 30 30 30 31 31 31 32 34 34 35 37 37 36 37 38 38 39 42 40 41 40 43 46 47 46 40 39 36 37 36 38 38 39
29 28 29 30 30 30 32 33 33 34 38 35 32 31 31 31 33 34 36 38 39 41 42 40 41 41 41 41 43 43 44 45 46 49 53 47 49 49 43 41 43 44 44 43 43
35 34 34 34 34 35 36 37 38 40 39 41 39 37 38 38 39 40 41 42 43 44 44 44 45 45 45 45 45 46 48 50 54 54 53 52 55 53 47 45 47 49 52 50 47
40 39 40 40 41 41 41 43 45 44 44 45 46 45 44 45 46 46 47 46 46 48 49 50 50 50 49 48 51 51 52 54 56 56 56 59 58 55 54 54 52 53 52 54 51
43 44 44 45 45 45 46 48 49 51 50 50 52 52 51 52 51 53 52 52 51 53 54 56 56 56 55 54 54 56 57 55 58 59 61 61 60 60 60 60 59 59 54 55 55
41 43 44 47 48 49 50 50 52 52 54 56 57 57 57 57 57 56 56 57 57 57 58 58 61 58 60 60 60 61 60 61 62 64 65 66 64 61 62 62 65 65 59 59 58
37 38 41 45 46 48 51 54 56 56 57 59 59 60 60 61 61 61 59 61 62 62 62 63 66 60 63 63 62 63 64 64 64 66 67 68 67 59 62 64 67 64 63 60 56
37 38 39 41 44 48 51 53 55 58 60 61 62 62 63 63 65 65 63 62 66 67 67 66 70 69 67 65 68 68 69 68 67 67 66 68 71 57 56 64 60 58 59 60 59
44 45 47 49 50 53 55 56 58 58 58 61 64 65 65 65 67 65 64 65 67 66 70 70 71 72 69 67 69 68 65 67 67 66 69 66 71 52 52 60 63 64 63 59 57
37 38 40 42 44 47 51 54 58 63 64 65 66 65 67 68 69 71 71 69 67 67 64 63 65 65 66 64 56 55 59 61 58 57 67 68 67 59 61 63 64 65 62 62 62
37 39 38 41 45 47 49 52 52 56 60 65 68 70 72 71 70 69 73 73 72 71 70 67 68 66 64 63 64 64 63 64 66 64 61 60 58 59 60 62 64 64 64 67 68
42 44 45 45 47 48 49 51 54 57 59 60 64 68 68 72 73 71 70 71 73 71 70 64 63 64 70 68 69 63 64 63 63 65 70 70 69 65 65 67 70 70 71 74 78
44 46 49 52 54 56 57 59 59 61 57 60 63 62 62 64 66 67 68 69 70 72 71 72 74 75 77 70 71 70 75 79 81 75 69 66 68 72 73 75 76 81 80 80 82
Wind_Direction
165 172 179 182 184 186 188 186 188 191 190 179 172 171 170 174 176 179 176 173 170 175 181 189 196 203 218 229 239 243 247 252 255 255 255 253 252 255 258 263 266 268 271 270 271
164 175 181 186 191 194 193 193 193 197 193 182 178 176 180 183 187 187 179 181 182 187 196 206 215 220 224 232 244 262 273 277 273 267 262 259 259 258 260 262 265 269 272 271 269
170 179 188 196 199 200 198 200 200 201 199 192 186 184 186 190 188 186 183 191 198 204 211 221 230 235 241 250 260 272 282 292 293 280 270 265 262 263 264 265 266 268 270 273 274
177 189 202 209 208 207 205 204 204 206 205 201 194 192 194 195 195 195 202 209 213 219 227 233 240 248 258 263 266 274 281 289 291 289 284 276 274 271 268 268 267 268 268 273 278
197 208 218 221 216 211 209 208 207 211 213 210 205 201 200 204 207 210 216 221 226 232 238 244 249 256 263 270 275 276 280 281 283 284 285 284 281 279 275 271 269 267 267 270 275
216 223 230 222 217 214 213 210 213 216 218 218 214 209 208 209 215 220 229 231 236 242 246 250 255 262 267 273 278 278 280 280 281 281 282 283 284 283 277 277 272 271 267 268 273
233 231 233 229 223 221 220 218 220 222 224 225 224 222 218 219 221 227 233 237 243 249 252 257 261 266 270 275 278 279 281 283 283 282 282 281 289 281 279 276 274 272 270 269 273
246 242 240 239 236 231 228 229 228 231 232 233 233 235 233 231 233 234 238 244 249 254 256 258 262 267 272 276 278 281 284 282 281 282 280 278 285 280 281 277 276 272 271 270 271
252 251 247 245 244 241 238 236 237 238 240 239 241 241 243 244 246 247 248 252 254 256 258 260 264 269 275 280 279 281 284 282 280 279 279 280 283 279 280 278 277 275 273 272 276
259 259 257 254 252 250 248 245 244 244 245 248 248 246 247 252 255 256 258 258 259 260 262 265 267 272 279 276 279 283 283 278 283 280 280 283 281 278 279 276 278 276 274 274 275
268 267 266 262 260 257 254 253 249 248 250 251 251 254 253 255 258 260 262 263 265 266 268 266 269 277 272 275 281 280 280 281 281 280 279 283 279 271 275 279 277 277 278 279 278
261 263 266 266 265 263 261 260 258 255 252 257 258 259 259 261 261 263 266 267 268 268 268 271 270 271 273 276 276 277 277 279 276 278 281 279 278 273 267 273 278 279 279 279 282
260 260 261 263 264 265 265 265 264 262 259 254 263 263 264 265 266 265 268 268 268 268 270 268 273 270 273 272 274 274 275 276 278 279 278 277 275 275 268 271 273 278 278 282 283
261 260 261 261 263 263 264 266 267 269 267 261 260 265 269 270 269 269 267 268 268 268 268 268 271 271 269 272 273 273 275 277 278 279 279 277 279 275 277 269 270 273 275 277 281
262 264 263 261 262 263 264 265 266 269 271 269 268 267 265 264 266 263 264 265 266 266 268 272 271 272 271 274 274 276 278 278 279 278 277 278 284 283 280 279 283 279 278 281 281
272 270 269 269 268 267 267 267 266 268 270 271 271 268 266 263 263 263 263 264 266 267 268 271 271 272 273 273 275 279 279 279 278 277 276 284 283 278 282 285 286 287 288 287 286
272 272 271 270 270 270 270 271 269 266 272 272 272 269 267 267 265 265 264 265 269 270 270 269 270 271 274 276 275 276 278 279 278 278 282 282 279 280 284 286 287 288 290 290 291
270 270 270 271 271 271 272 272 269 271 271 271 272 272 270 269 269 269 270 271 271 274 274 274 274 273 270 273 275 275 274 275 279 280 281 280 279 284 286 286 284 286 287 289 292
273 273 273 272 271 270 270 271 273 273 274 273 272 271 271 270 270 270 271 272 273 273 273 274 273 273 274 275 274 274 275 276 276 277 276 277 280 283 286 286 288 286 284 286 288
273 274 276 275 274 274 273 271 272 270 270 272 272 272 273 273 272 270 271 271 270 271 271 271 272 273 274 274 275 276 277 278 276 276 277 278 280 283 287 286 283 285 288 292 290
284 279 274 275 276 277 276 275 272 272 272 272 271 271 271 271 271 272 271 272 272 272 271 271 271 269 270 272 275 275 274 274 274 275 278 280 277 281 282 284 285 287 288 287 282
288 289 288 286 284 279 278 279 276 274 273 272 271 272 271 271 271 273 272 272 271 270 271 273 272 271 273 273 272 272 275 276 278 279 278 277 276 283 282 282 282 280 278 276 277
291 290 288 288 287 285 283 281 279 278 276 273 271 270 270 270 271 270 270 270 270 270 271 271 273 274 273 275 276 279 279 277 277 278 278 282 281 285 278 272 273 273 273 275 273
301 300 297 293 289 286 283 282 280 279 278 277 274 273 272 271 271 270 269 269 270 272 273 275 275 276 275 274 271 270 274 275 276 277 281 277 282 276 271 269 272 275 275 274 276
314 314 313 313 309 305 299 293 290 283 277 272 271 270 271 271 270 269 269 268 268 269 271 272 270 269 268 269 268 269 267 264 266 270 273 276 274 274 274 274 273 273 275 276 275
322 322 319 317 316 315 312 306 301 296 288 281 275 270 268 267 266 266 267 268 268 267 268 268 267 267 266 268 270 269 259 259 262 265 269 273 276 277 277 276 274 273 272 273 275
320 319 319 318 316 314 315 315 313 308 295 281 277 273 269 268 266 266 265 265 265 264 263 262 263 263 266 265 262 258 258 263 270 272 270 274 270 270 273 274 270 269 272 273 274